Location: Windsor
(43.2292°N, 89.3015°W)
Time: 10:03:27
(UTC+00:00)

Tiros 1 - Pass Details

Date: 30 May 2022
Orbit: 629 x 663 km, 48.4° (Epoch: 04 July)

Event Time Altitude Azimuth Distance (km) Brightness Sun altitude
Rises 09:04:31 0° 291° (WNW) 2,924 10.3 -11.7°
Reaches altitude 10° 09:06:53 10° 296° (WNW) 2,019 9.5 -11.4°
Maximum altitude 09:11:26 54° 14° (NNE) 779 7.9 -10.8°
Drops below altitude 10° 09:16:02 10° 92° (E) 2,035 10.4 -10.2°
Sets 09:18:25 0° 97° (E) 2,949 11.2 -9.9°
